Starlink 31844

operational
NORAD ID: 60583 Int'l Des: 2024-150 Owner: SPXS Country: US Constellation: starlink
LEOCIRCULAR

关于 Starlink 31844

正在加载描述...

实时位置

正在加载3D地球...

即将过境

高度历史

Altitude vs Time

uPlot chart will show altitude changes over time

两行轨道根数

1 60583U 24150A 25306.37809986 .00001250 00000-0 54345-4 0 9993
2 60583 53.1602 178.0762 0001435 89.1186 270.9979 15.30187725 68554
Epoch: Nov 2, 2025 • Age: 33 hours

当前状态

高度 479.0 km
速度 7.63 km/s
星下点 44.94°N, 17.31°W
发射日期 Aug 20, 2024
运行时间 1.2 years
类型 internet

技术详情

分类 Payload
质量 730.00 kg
干质量 700.00 kg
总质量 730.00 kg
长度 0.30 m
直径 4.10 m
跨度 29.00 m
形状 Box + pan
制造商 SPXS
平台类型 Starlink V2M
阶段状态 In Orbit
所有者/国家 SPXS/US

大型星座

Loading constellations...